• In Netherlands
  • List of Countries
  • For 7 days
  • Water Temperature
  • Satellite Maps
  • Weather Map
  • Weather Widgets
  • user-avatar
    Login

    Hourly Weather Hasselt

    Today, 30 April, Sunday

    Time Temperature Precipitation Wind Pressure Humidity
    00:00 +3°C° 0 mm 4 mps 758 mmHg 80%
    01:00 +3°C° 0 mm 4 mps 758 mmHg 80%
    02:00 +3°C° 0 mm 4 mps 757 mmHg 80%
    03:00 +3°C° 0 mm 4 mps 757 mmHg 80%
    04:00 +3°C° 0 mm 5 mps 756 mmHg 79%
    05:00 +5°C° 0 mm 5 mps 756 mmHg 78%
    06:00 +6°C° 0 mm 5 mps 756 mmHg 76%
    07:00 +8°C° 0 mm 6 mps 755 mmHg 72%
    08:00 +10°C° 0 mm 7 mps 755 mmHg 68%
    09:00 +12°C° 0 mm 7 mps 754 mmHg 63%
    10:00 +14°C° 0 mm 7 mps 754 mmHg 61%
    11:00 +16°C° 0 mm 7 mps 753 mmHg 59%
    12:00 +17°C° 0 mm 8 mps 753 mmHg 56%
    13:00 +17°C° 0 mm 7 mps 752 mmHg 57%
    14:00 +17°C° 0 mm 7 mps 752 mmHg 57%
    15:00 +17°C° 0 mm 7 mps 751 mmHg 57%
    16:00 +16°C° 0 mm 6 mps 751 mmHg 62%
    17:00 +15°C° 0 mm 6 mps 751 mmHg 68%
    18:00 +14°C° 0 mm 5 mps 750 mmHg 73%
    19:00 +14°C° 0 mm 5 mps 750 mmHg 71%
    20:00 +13°C° 0 mm 6 mps 750 mmHg 69%
    21:00 +13°C° 0 mm 6 mps 750 mmHg 68%
    22:00 +11°C° 0 mm 6 mps 750 mmHg 68%
    23:00 +11°C° 0 mm 6 mps 750 mmHg 69%

    Tomorrow, 1 May, Monday

    Time Temperature Precipitation Wind Pressure Humidity
    00:00 +11°C° 0 mm 6 mps 750 mmHg 70%
    01:00 +10°C° 0.2 mm 5 mps 751 mmHg 75%
    02:00 +9°C° 0.2 mm 5 mps 751 mmHg 81%
    03:00 +8°C° 0.2 mm 5 mps 751 mmHg 87%
    04:00 +8°C° 0.7 mm 4 mps 751 mmHg 88%
    05:00 +7°C° 0.7 mm 4 mps 752 mmHg 90%
    06:00 +8°C° 0.7 mm 3 mps 752 mmHg 91%
    07:00 +7°C° 0.2 mm 4 mps 752 mmHg 88%
    08:00 +8°C° 0.2 mm 5 mps 752 mmHg 86%
    09:00 +8°C° 0.2 mm 5 mps 753 mmHg 83%
    10:00 +9°C° 0.1 mm 6 mps 753 mmHg 80%
    11:00 +9°C° 0.1 mm 6 mps 753 mmHg 78%
    12:00 +10°C° 0.1 mm 7 mps 754 mmHg 75%
    13:00 +10°C° 0.1 mm 6 mps 754 mmHg 73%
    14:00 +11°C° 0.1 mm 6 mps 755 mmHg 70%
    15:00 +13°C° 0.1 mm 5 mps 755 mmHg 68%
    16:00 +12°C° 0.1 mm 4 mps 755 mmHg 72%
    17:00 +12°C° 0.1 mm 3 mps 756 mmHg 76%
    18:00 +12°C° 0.1 mm 2 mps 756 mmHg 80%
    19:00 +10°C° 0 mm 2 mps 757 mmHg 82%
    20:00 +9°C° 0 mm 2 mps 757 mmHg 84%
    21:00 +8°C° 0 mm 2 mps 758 mmHg 87%
    22:00 +7°C° 0 mm 2 mps 758 mmHg 87%
    23:00 +7°C° 0 mm 2 mps 758 mmHg 88%

    Day after tomorrow, 2 May, Tuesday

    Time Temperature Precipitation Wind Pressure Humidity
    00:00 +7°C° 0 mm 2 mps 758 mmHg 89%
    01:00 +6°C° 0 mm 2 mps 758 mmHg 89%
    02:00 +6°C° 0 mm 2 mps 758 mmHg 90%
    03:00 +6°C° 0 mm 2 mps 758 mmHg 91%
    04:00 +8°C° 0 mm 1 mps 758 mmHg 89%
    05:00 +8°C° 0 mm 1 mps 758 mmHg 87%
    06:00 +9°C° 0 mm 1 mps 758 mmHg 85%
    07:00 +10°C° 0 mm 1 mps 758 mmHg 80%
    08:00 +12°C° 0 mm 1 mps 758 mmHg 75%
    09:00 +12°C° 0 mm 0 mps 758 mmHg 70%
    10:00 +14°C° 0.1 mm 1 mps 758 mmHg 67%
    11:00 +15°C° 0.1 mm 1 mps 758 mmHg 64%
    12:00 +15°C° 0.1 mm 1 mps 758 mmHg 61%
    13:00 +15°C° 0.2 mm 2 mps 758 mmHg 65%
    14:00 +14°C° 0.2 mm 3 mps 758 mmHg 70%
    15:00 +13°C° 0.2 mm 3 mps 758 mmHg 74%
    16:00 +13°C° 0.1 mm 3 mps 758 mmHg 79%
    17:00 +12°C° 0.1 mm 3 mps 758 mmHg 84%
    18:00 +11°C° 0.1 mm 4 mps 759 mmHg 89%
    19:00 +10°C° 0.2 mm 3 mps 759 mmHg 91%
    20:00 +9°C° 0.2 mm 3 mps 760 mmHg 93%
    21:00 +8°C° 0.2 mm 3 mps 760 mmHg 95%
    22:00 +8°C° 0.4 mm 3 mps 760 mmHg 96%
    23:00 +7°C° 0.4 mm 3 mps 760 mmHg 96%

    3 May, Wednesday

    Time Temperature Precipitation Wind Pressure Humidity
    00:00 +7°C° 0.4 mm 2 mps 760 mmHg 97%
    01:00 +7°C° 0.5 mm 2 mps 760 mmHg 97%
    02:00 +7°C° 0.5 mm 2 mps 760 mmHg 97%
    03:00 +7°C° 0.5 mm 2 mps 760 mmHg 97%
    04:00 +7°C° 0.6 mm 2 mps 760 mmHg 97%
    05:00 +7°C° 0.6 mm 2 mps 760 mmHg 96%
    06:00 +7°C° 0.6 mm 2 mps 760 mmHg 96%
    07:00 +9°C° 0.4 mm 1 mps 760 mmHg 93%
    08:00 +10°C° 0.4 mm 1 mps 760 mmHg 91%
    09:00 +10°C° 0.4 mm 1 mps 760 mmHg 88%
    10:00 +11°C° 0.1 mm 1 mps 760 mmHg 84%
    11:00 +12°C° 0.1 mm 1 mps 760 mmHg 81%
    12:00 +13°C° 0.1 mm 1 mps 760 mmHg 77%
    13:00 +14°C° 0.1 mm 2 mps 760 mmHg 76%
    14:00 +15°C° 0.1 mm 2 mps 759 mmHg 75%
    15:00 +14°C° 0.1 mm 3 mps 759 mmHg 74%
    16:00 +14°C° 0.2 mm 3 mps 759 mmHg 78%
    17:00 +14°C° 0.2 mm 3 mps 760 mmHg 81%
    18:00 +13°C° 0.2 mm 3 mps 760 mmHg 85%
    19:00 +13°C° 0.3 mm 3 mps 760 mmHg 88%
    20:00 +12°C° 0.3 mm 3 mps 760 mmHg 90%
    21:00 +11°C° 0.3 mm 4 mps 760 mmHg 93%
    22:00 +10°C° 0 mm 4 mps 760 mmHg 94%
    23:00 +10°C° 0 mm 4 mps 760 mmHg 95%

    4 May, Thursday

    Time Temperature Precipitation Wind Pressure Humidity
    00:00 +8°C° 0 mm 4 mps 760 mmHg 96%
    01:00 +8°C° 0 mm 4 mps 760 mmHg 96%
    02:00 +7°C° 0 mm 4 mps 760 mmHg 95%
    03:00 +7°C° 0 mm 5 mps 760 mmHg 94%
    04:00 +7°C° 0 mm 5 mps 759 mmHg 93%
    05:00 +7°C° 0 mm 5 mps 759 mmHg 92%
    06:00 +6°C° 0 mm 5 mps 759 mmHg 91%
    07:00 +7°C° 0.2 mm 5 mps 759 mmHg 90%
    08:00 +7°C° 0.2 mm 5 mps 759 mmHg 89%
    09:00 +7°C° 0.2 mm 5 mps 759 mmHg 89%
    10:00 +8°C° 0.2 mm 5 mps 759 mmHg 88%
    11:00 +8°C° 0.2 mm 5 mps 759 mmHg 88%
    12:00 +8°C° 0.2 mm 5 mps 759 mmHg 88%
    13:00 +8°C° 0.1 mm 5 mps 759 mmHg 88%
    14:00 +8°C° 0.1 mm 5 mps 759 mmHg 88%
    15:00 +9°C° 0.1 mm 5 mps 759 mmHg 88%
    16:00 +8°C° 0 mm 5 mps 759 mmHg 89%
    17:00 +8°C° 0 mm 4 mps 759 mmHg 90%
    18:00 +8°C° 0 mm 4 mps 759 mmHg 90%
    19:00 +8°C° 0 mm 4 mps 759 mmHg 92%
    20:00 +8°C° 0 mm 3 mps 759 mmHg 93%
    21:00 +8°C° 0 mm 3 mps 760 mmHg 94%
    22:00 +7°C° 0 mm 2 mps 760 mmHg 95%
    23:00 +7°C° 0 mm 2 mps 760 mmHg 96%

    5 May, Friday

    Time Temperature Precipitation Wind Pressure Humidity
    00:00 +7°C° 0 mm 2 mps 760 mmHg 96%
    01:00 +8°C° 0 mm 1 mps 760 mmHg 96%
    02:00 +8°C° 0 mm 1 mps 760 mmHg 97%
    03:00 +8°C° 0 mm 1 mps 759 mmHg 97%
    04:00 +8°C° 0 mm 1 mps 760 mmHg 95%
    05:00 +8°C° 0 mm 1 mps 760 mmHg 94%
    06:00 +9°C° 0 mm 1 mps 760 mmHg 92%
    07:00 +10°C° 0 mm 1 mps 760 mmHg 87%
    08:00 +11°C° 0 mm 1 mps 760 mmHg 82%
    09:00 +12°C° 0 mm 1 mps 760 mmHg 77%
    10:00 +13°C° 0 mm 1 mps 760 mmHg 75%
    11:00 +14°C° 0 mm 1 mps 760 mmHg 73%
    12:00 +14°C° 0 mm 1 mps 760 mmHg 72%
    13:00 +15°C° 0 mm 2 mps 760 mmHg 72%
    14:00 +15°C° 0 mm 2 mps 759 mmHg 72%
    15:00 +16°C° 0 mm 3 mps 759 mmHg 72%
    16:00 +14°C° 0 mm 3 mps 759 mmHg 75%
    17:00 +14°C° 0 mm 3 mps 759 mmHg 79%
    18:00 +13°C° 0 mm 3 mps 759 mmHg 83%
    19:00 +12°C° 0 mm 3 mps 760 mmHg 86%
    20:00 +11°C° 0 mm 3 mps 760 mmHg 90%
    21:00 +9°C° 0 mm 3 mps 760 mmHg 94%
    22:00 +9°C° 0 mm 3 mps 760 mmHg 94%
    23:00 +9°C° 0 mm 3 mps 760 mmHg 95%
    Show more